Location: *
(45.5224°N, 122.7471°W)
Time: 21:16:44
(UTC+00:00)

Cosmos 2221 Rocket - Pass Details

Date: 09 April 2020
Orbit: 621 x 647 km, 82.5° (Epoch: 02 June)

Event Time Altitude Azimuth Distance (km) Brightness Sun altitude
Exits shadow 12:15:06 22° 237° (WSW) 1,355 4.7 -14.0°
Maximum altitude 12:17:13 35° 285° (WNW) 1,020 4.3 -13.7°
Drops below altitude 10° 12:21:17 10° 352° (N) 2,004 6.4 -13.1°
Sets 12:23:41 0° 1° (N) 2,914 7.4 -12.7°
